Theta_e
314 312 311 310 310 311 311 312 313 315 315 315 315 317 318 319 318 317 315 314 314 313 314 314 315 313 306 299 298 297 297 297 296 296 296 296 295 295 294 294 294 295 295 294 294 292 292 291 291 291 291 291 291 291 291 291 290 290 290 289 289 290 289 289 289 289 289 289 288 288 288 288 288 288 288 288 288 288 288 288 288 288 288 288 287
314 313 312 311 310 310 311 311 313 315 315 315 315 316 318 318 318 316 315 314 314 313 312 313 314 313 307 300 297 297 296 296 296 296 296 295 295 294 294 294 295 295 295 294 293 292 291 291 291 291 291 292 292 292 292 292 291 291 290 290 290 290 289 289 289 289 289 289 289 288 288 288 288 288 288 288 288 288 288 288 288 287 287 287 287
314 313 312 311 310 310 310 311 313 315 315 315 315 316 318 318 317 316 315 314 314 312 312 312 313 313 309 301 297 297 296 296 296 296 296 295 295 294 294 295 295 295 295 294 292 292 291 291 291 291 292 293 292 292 292 292 292 291 291 290 290 290 290 289 289 289 289 289 289 288 288 288 288 288 288 288 288 288 288 288 287 287 287 287 287
315 313 312 311 310 310 310 310 312 314 315 315 314 315 317 317 316 316 314 313 313 312 311 311 312 313 311 303 297 296 296 295 295 295 295 295 294 295 295 295 295 295 295 294 293 292 292 291 291 292 292 292 293 293 293 292 292 291 291 290 290 290 290 289 289 289 289 289 289 288 288 288 288 288 288 288 288 288 288 287 287 287 287 286 286
315 314 313 311 311 310 309 310 311 313 314 314 314 315 316 317 316 315 314 313 312 312 311 311 311 312 311 305 298 296 296 295 295 295 295 295 294 294 295 294 295 294 294 293 292 292 291 291 292 292 292 292 293 294 293 292 292 291 291 290 290 290 290 289 289 289 289 289 289 288 288 288 288 288 288 288 288 288 287 287 287 286 286 286 286
315 315 313 312 311 310 310 309 310 311 313 313 314 315 317 317 316 315 314 312 312 311 311 310 310 311 311 306 299 296 296 295 295 295 295 294 294 294 294 294 294 294 294 293 292 291 291 291 291 292 292 294 294 294 293 292 292 291 291 290 290 290 290 289 289 289 289 289 288 288 288 288 288 289 288 288 288 287 287 287 286 286 286 286 285
315 315 314 312 311 311 310 310 310 310 312 313 313 315 316 316 316 315 314 312 311 311 311 310 310 310 309 305 298 296 296 295 295 295 294 294 294 294 294 293 293 293 293 292 291 291 291 291 292 292 293 294 294 294 293 293 292 291 290 290 290 290 289 289 289 289 289 289 289 288 288 288 289 289 288 288 287 287 287 286 286 285 285 285 285
315 315 314 313 312 312 311 310 309 310 311 312 313 314 315 315 315 315 314 313 311 311 311 310 309 308 307 303 298 296 296 295 295 294 294 294 294 293 294 293 293 292 292 292 292 291 291 292 292 292 293 293 294 294 294 293 292 291 290 290 290 290 289 289 289 289 289 289 289 288 288 288 289 288 288 287 287 287 286 285 285 285 285 284 284
314 314 314 314 313 312 310 310 309 309 309 310 312 313 314 314 314 314 314 313 311 311 311 310 309 307 304 301 297 295 295 295 295 294 294 294 294 293 293 293 293 292 292 292 292 291 291 292 292 292 292 293 294 294 293 293 292 291 290 290 290 289 289 289 289 289 289 289 289 289 288 289 288 288 288 287 287 286 285 285 285 285 284 284 283
314 314 314 314 313 311 310 310 309 309 309 309 310 311 312 312 313 314 314 312 311 311 310 310 309 306 303 300 296 295 295 294 294 294 294 294 294 294 293 293 292 292 292 292 291 291 291 291 291 292 294 294 294 294 293 292 291 291 290 290 289 289 289 288 289 289 289 288 289 289 289 289 288 287 287 287 286 285 285 284 284 284 283 283 283
314 314 314 314 313 312 311 310 309 309 308 308 308 310 311 311 311 312 313 313 311 310 310 310 309 307 303 299 296 295 294 294 294 293 293 293 293 293 293 292 292 292 292 291 292 292 291 290 292 294 294 294 293 293 293 292 291 291 290 290 289 289 288 288 288 288 288 288 288 289 288 288 288 287 286 286 285 284 284 284 283 283 282 281 282
313 313 313 313 313 312 311 310 309 309 308 308 308 309 311 311 311 311 312 313 311 310 310 310 310 308 305 301 297 295 294 294 294 293 293 293 293 292 292 292 292 291 291 291 291 291 290 290 293 294 294 293 293 293 292 291 291 291 291 290 289 288 288 288 288 288 288 288 288 288 288 287 287 286 286 285 284 284 283 283 282 281 281 281 281
312 312 312 312 312 312 311 310 309 309 308 308 307 308 309 310 311 311 312 313 312 311 310 310 310 309 307 304 299 295 293 293 293 293 293 293 292 292 292 291 291 291 291 291 291 289 290 292 294 294 293 293 293 292 291 290 291 291 290 289 288 288 288 288 288 288 288 288 288 287 287 286 286 286 285 284 283 283 283 282 281 280 280 280 280
312 311 311 312 312 312 311 310 310 309 308 308 307 307 308 309 310 311 312 313 312 311 310 309 309 309 309 307 303 298 295 293 293 292 292 292 292 292 291 291 291 291 291 290 289 289 292 294 295 294 293 293 292 292 291 290 290 290 290 289 288 288 288 288 288 287 287 287 287 287 286 286 285 285 284 283 283 283 282 281 280 280 280 280 280
312 312 312 311 311 311 311 310 309 309 308 308 307 307 307 307 308 310 311 312 312 312 310 309 309 309 309 308 305 302 298 294 292 292 292 292 292 291 291 291 291 290 289 289 289 291 294 295 295 294 293 293 292 291 289 289 289 289 289 288 288 288 288 287 287 287 287 287 286 286 285 285 284 284 283 282 282 282 281 280 280 280 280 279 279
312 312 312 311 310 310 310 309 309 308 308 308 308 308 307 307 307 308 310 311 311 311 311 310 309 308 308 308 307 305 301 297 293 292 291 291 291 291 291 291 290 290 289 289 290 293 295 296 295 294 293 292 292 290 288 288 288 288 288 288 288 287 287 287 287 286 286 286 285 285 285 284 284 283 282 282 281 281 280 279 279 279 278 278 278
313 312 312 311 310 310 309 308 308 308 308 308 308 308 307 307 307 308 309 310 311 311 311 310 309 308 307 308 308 306 304 299 295 292 291 291 291 291 291 290 289 290 289 289 291 294 295 296 295 294 293 292 291 289 287 287 287 288 288 287 287 287 287 286 286 286 285 285 284 284 284 284 283 282 281 280 280 280 279 279 279 278 277 277 277
313 312 312 312 311 310 309 308 308 307 307 307 307 307 307 307 307 307 308 310 310 311 312 310 309 308 307 307 307 306 305 301 296 292 291 290 291 291 291 290 290 290 289 289 292 294 294 295 294 293 292 291 289 287 287 287 287 287 287 286 286 286 286 286 285 285 284 284 284 284 284 283 283 282 281 280 279 279 278 278 278 277 277 277 276
312 311 311 311 310 309 308 308 307 307 306 306 306 306 306 306 306 306 307 309 310 311 311 311 310 309 308 307 306 304 302 298 294 291 290 290 290 290 290 290 290 290 289 290 292 293 294 295 294 292 292 290 289 287 287 287 287 287 286 286 285 285 285 285 285 285 284 284 284 284 284 283 282 282 281 280 279 278 278 278 278 277 277 276 276
311 310 310 309 309 308 307 307 306 306 306 305 305 305 305 305 305 305 305 307 309 310 310 310 310 309 308 306 304 302 299 295 292 291 290 290 289 290 290 290 290 290 289 290 291 292 294 295 294 292 291 290 288 287 287 287 287 286 286 285 285 285 285 285 285 285 285 284 284 284 284 283 282 282 281 280 279 278 278 278 277 277 277 276 276
310 309 309 308 308 308 307 306 305 305 304 304 303 303 303 303 304 304 304 305 307 309 309 309 308 307 306 303 302 301 299 295 292 292 291 290 289 289 290 290 291 290 289 289 291 292 293 294 293 291 290 290 288 287 287 286 286 286 285 285 286 286 286 285 285 285 285 285 285 285 284 284 283 282 281 280 278 278 277 277 277 277 276 276 275
310 309 308 308 308 307 306 305 304 303 302 302 301 301 301 302 302 302 303 304 305 307 307 307 306 304 303 302 300 299 297 294 293 292 291 289 289 289 290 290 290 289 288 289 290 292 293 294 293 291 289 289 288 287 286 286 286 286 286 286 286 285 285 285 285 285 286 286 286 285 284 283 282 281 279 278 278 277 277 277 277 277 276 276 275
309 309 308 308 307 306 305 304 303 302 301 301 300 300 300 300 300 301 301 302 303 304 305 305 304 302 301 300 300 298 296 294 293 291 290 289 289 289 289 289 288 288 289 290 291 292 293 293 291 290 289 288 287 286 286 286 286 286 286 285 285 285 285 286 286 286 286 286 284 284 283 282 280 279 278 278 277 277 276 277 277 276 276 276 275
309 308 308 307 306 305 304 303 302 301 301 300 300 299 299 299 299 299 301 301 302 303 303 303 302 301 301 300 299 297 295 293 292 290 289 289 288 288 288 288 288 289 289 290 292 292 293 291 290 289 287 286 286 286 285 285 286 286 285 285 285 286 286 286 286 285 284 283 283 282 282 281 279 279 278 277 277 276 276 276 276 276 276 275 275
308 308 307 306 305 304 302 301 300 300 299 299 299 298 298 298 298 299 300 300 301 301 301 301 301 301 300 299 298 297 294 292 290 289 288 288 287 287 288 288 289 290 291 292 292 292 291 289 288 287 286 285 285 285 285 286 286 286 286 286 286 286 286 285 285 284 283 283 282 282 281 280 279 278 277 277 276 276 276 276 276 276 276 275 275
308 307 306 304 303 302 301 300 299 299 298 298 298 298 298 298 298 299 299 300 300 300 300 299 298 298 298 298 298 297 295 293 291 290 289 289 289 289 290 290 291 291 292 292 292 290 289 287 286 286 285 285 285 286 286 286 286 286 286 286 286 285 285 285 284 284 284 283 283 282 281 280 279 278 277 276 276 276 276 276 276 276 275 275 274
307 306 305 303 302 301 300 299 298 298 297 297 297 297 297 297 297 298 298 299 298 298 297 297 296 297 298 298 298 297 296 295 294 293 293 293 293 293 292 292 292 292 292 291 290 289 287 286 286 286 286 286 286 287 287 287 287 287 287 286 286 285 285 285 284 284 284 283 282 282 281 280 280 279 278 277 276 276 276 275 275 275 274 274 274
306 305 304 302 301 299 298 298 297 297 296 296 296 296 296 297 297 297 297 297 298 297 297 297 297 298 299 299 298 297 296 296 296 296 295 295 294 294 293 293 293 292 291 290 288 287 287 286 286 286 287 287 287 288 288 288 288 287 287 286 285 285 285 284 284 283 283 282 282 282 281 280 279 279 278 277 277 276 275 275 274 274 274 274 274
305 304 303 302 300 299 297 297 296 296 296 296 295 296 296 296 296 296 296 296 296 296 297 297 297 298 298 297 297 297 297 297 296 295 294 294 293 293 293 292 291 291 289 288 287 287 287 287 287 287 288 288 288 288 288 288 287 286 286 285 285 285 284 283 283 283 283 282 281 281 280 280 279 278 278 277 277 276 275 274 274 274 274 273 273
304 303 302 301 300 299 297 296 296 295 295 295 295 295 295 295 295 295 295 295 295 295 295 296 296 296 296 296 296 295 295 295 294 293 292 292 292 291 291 290 290 289 288 288 287 287 287 288 288 288 288 288 287 287 287 286 286 285 285 285 285 284 283 283 283 282 282 281 281 280 279 279 278 278 277 277 276 275 274 274 273 273 273 273 273
303 302 301 300 300 299 298 297 296 295 295 295 295 295 296 296 295 295 294 294 294 295 296 296 296 296 295 295 295 294 294 294 293 292 291 291 291 291 290 290 290 289 289 288 288 288 288 288 288 288 288 287 287 287 286 286 286 285 285 285 284 284 283 282 282 282 281 280 279 279 278 278 277 277 276 276 275 274 274 273 273 273 273 273 273
301 301 300 300 299 298 297 297 296 296 296 296 296 296 296 296 296 295 295 295 295 295 295 295 295 295 295 295 295 295 294 293 292 291 291 291 291 291 291 290 290 290 289 289 289 289 289 288 288 288 287 287 287 287 286 286 286 285 284 284 284 283 283 282 282 281 280 279 278 278 277 277 276 276 275 275 274 274 274 273 273 273 273 272 272
300 300 300 299 298 298 297 297 297 297 297 297 297 297 298 297 297 297 296 296 296 296 296 295 295 295 295 294 294 294 293 292 292 291 291 291 291 291 290 290 290 290 289 289 289 288 288 288 288 287 287 287 287 286 286 285 285 285 284 284 283 283 282 282 281 281 279 278 278 277 277 276 276 275 274 274 274 274 273 273 273 272 272 272 272
299 299 299 298 298 298 298 298 298 298 298 298 298 298 298 298 298 298 297 297 297 296 296 295 295 294 293 293 293 292 292 292 291 291 291 291 290 290 290 289 289 289 288 288 288 288 288 288 287 287 287 287 286 286 285 285 285 284 284 283 283 283 282 282 281 280 279 278 277 277 276 276 275 274 274 274 273 273 273 273 272 272 272 272 271
299 298 298 297 297 297 297 297 297 298 298 298 298 298 298 298 298 297 297 296 296 295 295 294 293 292 292 292 292 292 292 291 291 290 290 290 290 289 289 289 288 288 288 288 288 288 288 288 287 287 287 286 286 285 285 285 284 284 283 283 283 282 282 281 281 280 279 278 277 277 276 275 275 274 274 273 273 273 272 272 272 272 271 271 271
298 297 297 296 296 296 296 297 297 297 298 297 297 297 297 296 296 296 295 294 293 293 293 293 292 292 292 292 291 291 291 290 290 290 289 289 289 289 288 288 288 288 288 288 288 288 288 288 287 287 286 285 285 285 284 284 284 283 283 282 282 282 282 281 281 280 279 278 277 277 276 275 274 274 273 273 272 272 272 272 271 271 271 270 270
297 297 297 297 297 296 296 297 297 296 296 296 296 296 296 295 294 294 293 292 292 292 292 292 292 291 291 291 290 290 290 289 289 289 289 288 288 288 288 288 288 288 288 288 288 288 287 287 286 286 285 285 284 284 284 283 283 282 282 282 282 281 281 280 280 279 279 278 278 277 275 275 274 273 273 272 272 272 271 271 271 270 270 269 269
296 296 296 296 296 296 295 296 296 296 295 295 295 295 294 294 293 292 292 292 291 291 291 291 291 290 290 290 290 289 289 289 289 289 288 288 288 288 288 288 288 288 288 287 287 287 287 286 286 285 284 284 283 283 283 282 282 282 282 281 281 281 280 279 279 279 278 277 277 276 275 274 273 273 273 272 272 271 271 270 270 270 269 269 269
295 295 295 295 295 294 295 295 295 295 294 294 293 293 292 292 292 291 291 291 291 291 290 290 290 290 290 290 289 289 289 289 289 289 288 288 288 288 288 288 287 287 287 287 287 286 286 285 285 284 283 283 283 282 282 282 282 281 281 281 280 280 279 279 278 278 277 276 276 275 274 274 273 273 272 272 271 271 270 270 270 269 269 269 268
295 294 294 294 294 293 293 293 293 292 292 292 291 291 291 291 291 291 291 290 290 290 290 290 289 289 289 289 289 289 289 289 289 288 288 288 288 288 288 287 287 287 287 286 286 285 285 284 283 283 283 282 282 282 282 281 281 281 280 280 280 279 278 278 277 276 276 275 275 274 274 273 273 272 272 272 271 270 270 270 270 269 269 269 268
293 293 293 292 292 291 291 291 291 291 291 291 291 291 291 291 291 290 290 290 290 290 290 289 289 289 289 289 289 289 288 288 288 288 288 288 288 287 287 287 286 286 285 285 284 284 283 283 283 282 282 282 282 281 281 281 280 280 280 279 279 278 277 277 276 275 275 275 274 274 273 273 272 272 272 271 270 270 270 270 269 269 269 269 268
291 291 291 291 291 291 291 291 292 292 291 291 291 291 290 290 290 290 290 290 290 289 289 289 289 289 289 288 288 288 288 288 288 288 287 287 287 287 286 286 285 285 284 284 283 283 283 282 282 282 282 281 281 281 280 280 280 279 279 278 277 277 276 276 275 275 274 274 274 273 273 272 272 271 271 270 270 270 270 269 269 269 269 268 268
292 292 292 293 293 292 292 292 292 292 291 291 291 290 290 290 289 289 289 289 289 289 289 289 289 289 288 288 288 288 288 288 287 287 287 287 286 286 285 285 284 284 283 283 283 282 282 282 282 281 281 281 280 280 280 279 279 278 277 277 276 276 275 275 275 274 274 273 273 272 272 272 271 271 270 270 270 270 269 269 269 268 268 268 268
293 293 293 293 293 293 292 292 292 292 291 291 290 290 289 289 289 289 289 289 289 289 288 288 288 288 288 288 288 288 288 287 287 287 286 286 286 285 285 284 283 283 282 282 282 282 282 281 281 281 280 280 280 279 279 278 278 277 277 276 276 275 275 274 274 274 273 273 272 272 272 271 271 270 270 270 269 269 269 269 268 268 268 268 268
294 293 293 293 293 292 292 292 292 291 291 290 290 289 289 289 289 288 288 288 288 288 288 288 288 288 288 288 287 287 287 287 287 286 286 286 285 284 284 283 283 282 282 282 282 281 281 281 280 280 280 279 279 278 278 277 277 276 276 276 275 275 274 274 273 273 273 272 272 271 271 271 270 270 270 269 269 269 269 269 268 268 268 268 267
293 293 292 292 292 292 292 291 291 290 290 289 289 289 288 288 288 288 288 288 288 288 288 288 288 287 287 287 287 287 287 286 286 286 285 285 284 283 283 282 282 282 282 281 281 281 280 280 280 279 279 278 278 277 277 276 276 276 275 275 275 274 274 273 273 273 272 272 271 271 271 270 270 269 269 269 269 269 268 268 268 268 267 267 267
292 292 291 291 291 291 290 290 289 289 289 288 288 288 288 288 288 288 288 288 288 288 288 287 287 287 287 287 286 286 286 285 285 285 284 284 283 283 282 282 282 282 281 281 280 280 280 279 279 278 278 277 277 276 276 276 275 275 275 274 274 274 273 273 273 272 272 271 271 270 270 270 270 269 269 269 268 268 268 268 268 267 267 267 267
291 291 290 290 289 289 289 289 288 288 288 288 288 288 288 288 288 288 288 287 287 287 287 287 286 286 286 286 286 285 285 284 284 284 283 283 283 282 282 282 281 281 281 280 280 279 279 279 278 278 277 277 276 276 275 275 275 275 274 274 273 273 273 272 272 272 271 271 270 270 270 269 269 269 269 268 268 268 268 268 267 267 267 267 267
290 289 289 289 289 288 288 288 288 288 288 288 287 287 287 287 287 287 287 287 287 286 286 286 286 285 285 285 285 284 284 284 283 283 283 282 282 282 282 281 281 280 280 279 279 278 278 278 277 277 276 276 275 275 275 274 274 274 273 273 272 272 272 272 271 271 271 270 270 269 269 269 269 269 268 268 268 268 268 267 267 267 267 267 267
289 289 288 288 288 288 288 288 288 288 287 287 287 287 287 286 286 286 286 286 286 285 285 285 285 284 284 284 283 283 283 283 282 282 282 282 282 281 281 280 280 280 279 278 278 277 277 276 276 276 275 275 275 274 274 274 273 273 272 272 272 271 271 271 271 270 270 270 269 269 269 269 269 268 268 268 268 268 268 267 267 267 267 267 267
288 288 288 288 288 288 288 287 287 287 287 287 286 286 286 286 285 285 285 285 285 284 284 284 284 283 283 283 282 282 282 282 282 282 282 281 281 281 280 279 279 278 278 277 277 276 276 275 275 275 274 274 274 274 273 273 272 272 272 271 271 271 271 271 270 270 269 269 269 269 269 269 268 268 268 268 268 268 267 267 267 267 267 267 266
Wind_Speed
20 23 26 28 30 32 33 32 32 35 37 36 34 34 34 35 35 33 30 29 27 27 29 31 34 38 41 42 42 42 41 41 40 39 38 37 36 33 31 30 29 28 27 26 25 23 21 20 18 16 15 13 10 9 9 9 9 10 10 10 10 10 10 10 11 12 13 15 15 16 16 16 17 20 22 23 24 25 26 26 27 29 30 31 32
20 22 25 27 30 32 33 33 33 36 37 37 35 34 35 36 35 34 32 30 28 27 29 31 34 38 42 43 43 42 41 41 41 40 39 38 36 34 32 30 30 29 28 27 26 24 22 20 18 17 15 12 10 9 9 9 9 10 10 10 10 10 10 11 12 13 14 15 16 17 17 18 19 21 23 24 25 26 27 27 28 30 31 32 33
19 21 23 27 29 31 33 34 35 37 38 38 37 36 36 36 36 36 34 31 29 29 29 31 34 38 41 43 43 42 41 41 41 40 39 38 36 34 32 31 30 30 29 28 26 24 22 20 19 17 14 12 10 10 10 10 10 10 10 11 11 11 11 12 12 14 15 15 17 18 18 18 20 22 23 24 25 27 29 29 30 31 32 33 34
18 21 23 25 29 31 32 33 35 38 39 40 39 38 37 38 38 37 35 32 31 31 31 32 34 38 41 44 44 43 42 42 41 40 39 38 36 34 32 31 31 30 29 27 25 24 22 20 19 16 14 12 11 10 10 11 11 11 11 11 12 12 12 13 13 15 16 17 17 18 18 20 21 23 24 25 27 29 31 31 32 33 33 34 35
17 20 22 25 28 31 33 33 35 38 39 40 41 40 40 40 40 38 37 34 32 32 33 33 36 39 41 44 45 44 42 42 41 40 39 37 35 34 32 31 30 30 29 27 25 24 22 20 19 17 15 13 12 11 12 12 13 13 13 13 13 13 13 14 14 16 17 18 18 19 19 21 22 23 25 27 29 30 32 33 33 34 34 35 36
17 19 21 25 28 31 33 35 36 37 38 39 40 40 41 42 42 39 38 36 34 33 34 35 37 39 41 43 44 44 43 42 42 41 39 37 35 33 32 30 30 30 29 28 26 24 22 21 19 18 15 14 13 13 13 14 14 14 14 14 15 15 15 15 16 17 18 19 20 21 21 21 23 24 25 28 30 31 33 34 34 34 35 36 37
19 20 22 24 28 31 33 35 36 37 38 39 39 40 40 42 42 40 40 38 36 34 35 37 38 39 41 42 43 44 43 42 42 41 39 37 35 34 33 32 31 31 30 28 26 25 23 22 20 18 16 15 14 15 15 16 16 16 16 16 16 16 17 17 17 18 19 21 22 22 22 23 24 25 26 28 30 31 33 35 36 36 36 37 37
23 22 23 24 27 30 32 34 36 36 38 39 40 40 40 41 42 41 41 41 38 35 35 37 38 39 40 42 43 43 43 43 42 42 40 37 36 35 34 33 33 32 30 29 27 26 25 23 21 19 17 16 16 17 17 18 18 18 17 18 18 18 18 19 19 20 21 23 23 23 24 25 25 26 27 28 30 32 32 34 37 38 38 38 38
26 25 24 24 26 30 33 35 36 37 37 39 40 42 42 42 42 41 43 43 39 35 35 36 39 39 40 43 44 44 44 44 43 42 40 38 37 36 35 34 34 33 32 30 29 27 26 24 22 19 17 17 18 19 19 19 19 19 19 19 20 20 20 20 21 21 23 25 25 24 26 27 27 28 29 29 31 32 32 33 36 38 39 39 38
30 28 26 25 26 30 33 36 37 38 38 39 41 42 43 44 43 42 44 44 41 37 35 37 39 40 41 43 46 46 45 44 43 41 39 38 37 37 36 35 34 33 32 30 29 28 27 25 22 18 18 19 20 21 21 21 21 21 21 21 21 22 22 22 23 24 25 26 25 25 27 29 29 29 30 31 31 32 33 34 37 38 38 40 40
33 31 28 26 27 30 33 37 39 40 40 40 41 43 44 44 44 43 44 45 44 41 38 38 39 41 42 44 46 47 46 45 43 40 39 38 38 37 36 35 34 33 32 30 29 28 27 24 20 19 20 21 22 22 23 23 23 23 23 24 24 24 24 24 25 26 27 27 26 27 29 30 30 29 31 32 32 32 33 35 36 36 37 39 41
35 34 31 29 30 31 33 37 40 42 42 41 41 42 45 46 46 45 46 47 47 44 41 39 39 40 42 44 46 47 46 44 42 41 40 39 38 36 35 35 35 33 31 30 29 28 26 22 20 21 22 22 23 24 25 25 25 25 26 26 26 26 26 26 27 28 28 28 28 29 30 31 31 31 32 32 32 33 34 35 35 35 37 38 39
37 36 34 33 32 32 33 36 40 42 43 43 42 42 45 47 48 48 48 48 49 47 44 41 39 39 41 43 45 46 46 45 43 42 40 39 37 36 35 35 33 32 31 30 29 26 23 21 22 23 23 24 25 26 27 27 28 28 28 28 29 29 28 29 29 30 29 29 31 32 31 31 32 33 32 32 33 34 35 35 34 35 37 37 37
34 34 34 35 34 34 35 37 39 42 44 44 44 44 44 46 47 48 48 49 50 50 47 43 41 40 40 42 43 45 45 45 43 42 40 39 38 37 36 34 32 31 31 29 27 25 23 23 24 23 23 25 26 27 29 29 30 30 31 31 31 31 31 31 32 32 31 31 33 33 32 32 34 35 33 32 34 35 35 35 35 35 35 36 37
31 31 32 35 35 36 36 38 39 41 43 44 45 45 45 45 46 47 48 48 49 50 49 46 43 41 40 40 41 43 44 43 43 43 41 39 39 38 36 34 33 33 31 27 26 26 24 24 24 23 24 25 26 28 30 31 32 32 33 33 33 33 33 33 33 34 34 34 34 34 34 34 35 34 33 33 33 34 34 35 34 34 35 36 37
31 31 33 35 36 37 37 38 39 40 41 43 45 46 46 47 47 47 47 47 47 49 50 49 47 44 42 41 41 42 42 43 44 43 42 41 40 38 37 35 34 33 30 28 28 27 24 24 24 24 24 24 26 29 31 33 34 35 35 36 36 36 35 35 34 35 35 35 35 35 35 36 35 34 33 33 32 32 32 32 33 33 34 35 37
31 32 34 35 36 37 37 38 39 39 40 42 44 45 46 47 47 48 48 48 48 49 51 52 50 47 44 43 42 42 42 42 44 44 44 42 40 39 38 36 34 31 30 30 30 27 24 24 24 24 24 25 27 30 32 34 35 36 37 38 38 38 37 36 36 37 36 36 35 35 36 36 34 32 30 28 27 29 30 32 32 32 33 34 36
29 30 32 33 35 35 36 37 38 39 40 41 42 44 45 45 46 48 49 50 49 49 50 50 50 48 46 43 42 42 42 43 44 45 45 43 42 41 39 36 33 31 32 33 31 28 26 26 25 25 26 26 27 30 33 34 36 37 38 38 39 39 37 36 36 36 35 34 34 34 35 34 32 30 28 26 26 28 30 31 31 30 31 32 33
27 28 29 31 32 33 33 35 36 38 40 40 41 42 43 43 44 46 49 50 49 47 46 46 47 48 47 45 43 43 43 42 44 45 44 43 43 41 38 36 33 33 35 35 32 29 29 28 26 26 27 26 28 31 33 35 36 37 37 38 38 38 36 34 35 35 34 33 34 35 35 33 31 30 29 27 27 28 28 27 27 27 27 29 29
27 27 28 29 30 31 32 33 35 37 39 39 39 40 40 42 43 44 46 48 48 47 45 45 46 47 47 46 44 42 41 42 44 44 43 43 43 40 38 36 34 36 37 36 32 31 32 30 27 27 27 27 29 32 34 35 36 35 35 36 36 35 34 34 35 35 35 35 35 35 34 32 31 29 28 26 25 25 24 24 24 24 24 26 26
27 28 28 28 29 30 31 33 34 36 37 38 38 38 38 40 41 41 42 43 45 45 44 43 44 44 45 43 41 40 40 42 42 41 42 43 43 40 38 37 37 39 38 35 34 35 35 32 29 28 27 27 30 32 34 35 35 34 34 34 34 34 35 36 36 35 36 37 36 35 34 32 30 28 25 23 21 21 21 22 23 23 24 25 25
27 27 27 27 28 29 30 32 33 34 35 36 35 35 36 37 38 38 38 39 41 42 41 40 41 42 41 39 37 38 39 39 38 38 39 41 41 39 39 39 39 39 37 36 38 39 36 32 29 27 27 28 31 32 33 33 33 34 34 34 33 34 35 36 36 35 36 35 34 34 33 31 30 28 25 23 21 20 21 23 24 24 24 25 25
27 27 27 28 28 28 30 31 32 33 33 32 32 33 33 35 36 36 36 37 38 39 39 39 39 39 38 36 35 35 34 34 34 35 37 39 40 41 40 39 39 38 38 40 41 39 35 31 29 28 28 29 31 31 32 32 32 33 34 33 33 33 33 34 34 33 33 32 32 32 31 30 30 29 27 25 24 24 24 24 24 25 25 25 26
28 27 27 28 28 27 28 29 29 30 29 28 29 30 31 33 33 34 35 36 37 37 38 38 38 38 37 36 34 32 31 31 32 34 36 39 40 40 39 38 39 40 41 42 40 37 33 31 30 29 29 29 30 30 30 31 32 32 32 31 31 30 29 29 29 29 29 30 30 30 29 29 29 28 27 27 27 27 26 26 26 26 26 26 27
29 28 27 27 27 26 26 26 27 27 26 26 27 27 29 30 31 32 34 35 36 37 37 37 37 37 37 34 31 29 29 29 30 32 33 35 36 37 38 39 41 42 42 41 38 34 31 30 29 29 29 29 29 29 29 30 29 29 29 28 27 26 26 25 24 24 25 26 26 27 27 26 27 27 27 27 28 28 27 27 27 27 26 27 29
29 27 26 26 25 25 25 25 25 25 24 24 24 25 25 26 27 29 32 34 35 36 36 36 36 35 33 29 26 26 27 28 28 30 32 34 36 38 39 40 41 41 39 37 34 32 30 29 28 28 28 28 28 28 28 27 27 26 25 24 23 23 22 20 19 19 21 21 22 23 24 24 25 26 26 27 27 27 26 26 27 26 26 28 32
28 26 25 25 24 23 23 23 24 23 23 23 23 23 23 24 26 28 30 32 34 33 32 32 32 30 27 23 22 23 23 23 25 27 30 32 34 36 37 37 37 36 35 34 33 30 28 27 27 27 27 27 27 27 26 25 24 23 22 21 21 20 18 16 15 15 17 18 20 21 22 23 25 26 26 27 27 26 24 24 24 25 27 30 34
26 25 24 23 22 21 21 21 21 21 22 22 22 22 22 23 24 25 25 26 27 26 26 27 27 26 24 22 21 21 20 21 21 23 25 26 28 29 31 32 32 32 32 31 29 28 26 25 26 26 26 26 26 25 24 23 22 21 21 20 19 17 15 15 15 15 15 16 18 20 21 23 24 25 25 26 26 24 22 22 23 26 28 31 35
25 23 23 21 20 18 18 19 19 20 21 21 21 21 21 21 20 19 18 18 19 18 18 19 20 20 19 19 18 18 18 17 17 18 20 21 23 25 26 27 28 28 27 26 26 26 26 25 25 25 25 25 24 23 23 22 21 20 20 18 17 15 14 15 16 16 16 17 18 19 20 21 23 23 24 25 24 23 21 22 24 27 29 32 35
23 22 21 19 18 17 17 18 18 19 20 20 21 21 20 19 17 15 15 15 15 14 14 14 14 15 15 16 16 15 14 13 13 16 18 20 22 24 24 24 25 24 24 24 25 26 26 26 25 25 24 23 23 22 22 21 20 20 18 16 15 15 15 15 16 16 17 19 19 18 19 20 21 21 22 23 22 21 21 23 26 29 30 32 33
22 21 19 18 17 16 17 17 18 19 19 19 18 18 19 18 17 15 15 15 15 15 15 15 15 16 16 16 15 15 15 15 17 19 20 22 23 23 23 24 24 24 24 25 25 26 26 25 24 23 22 22 21 21 20 19 18 17 16 16 15 15 15 15 16 16 17 18 18 18 18 19 19 19 20 20 20 20 21 23 26 28 29 30 31
20 19 17 16 16 16 17 17 18 18 18 18 17 17 17 17 18 18 18 17 17 16 16 16 16 16 16 17 18 19 19 18 19 20 21 22 22 22 22 22 22 23 24 25 25 24 24 23 22 21 21 20 20 19 18 17 16 16 16 16 16 15 15 16 16 16 17 17 17 18 18 18 18 18 18 19 19 20 21 23 25 27 28 30 32
17 17 16 16 16 17 17 17 18 18 17 17 17 17 17 18 18 18 18 18 18 17 17 17 17 18 19 19 20 20 20 19 19 20 21 21 20 20 20 20 20 21 22 23 23 22 22 21 20 20 19 18 17 17 16 15 15 16 16 16 16 15 16 16 17 16 16 16 17 17 18 18 19 19 19 19 19 21 22 23 25 27 29 31 32
15 15 14 14 15 16 16 16 17 17 17 17 17 17 17 18 18 17 17 18 19 19 20 20 20 20 21 20 19 19 19 19 19 19 19 19 18 18 19 19 20 21 22 22 22 21 21 20 19 18 18 17 16 15 15 15 16 16 16 16 16 16 17 18 18 17 16 16 17 17 18 18 19 19 20 20 20 22 23 25 26 28 29 30 32
15 14 14 14 14 15 15 16 16 16 15 15 14 14 14 15 16 17 17 18 19 20 21 21 21 21 20 19 18 18 18 18 17 17 17 18 18 19 20 21 21 22 22 22 21 21 20 18 17 16 16 15 15 15 16 16 17 16 16 16 16 17 18 19 19 18 18 17 17 17 17 18 19 20 21 21 22 23 25 26 27 28 29 30 32
15 14 14 13 13 13 13 13 13 12 12 11 12 13 15 15 17 18 18 17 17 18 19 19 19 19 19 18 18 18 18 18 18 18 18 19 19 20 21 21 21 22 21 20 19 19 18 17 16 15 15 15 15 16 17 17 17 16 16 16 17 17 18 19 19 19 18 18 18 18 18 20 21 22 23 24 24 25 25 26 26 27 28 30 31
14 13 13 13 13 13 12 12 12 12 12 13 15 16 16 15 15 15 15 16 16 16 16 17 18 18 18 18 18 19 19 19 19 19 19 20 20 21 21 20 20 19 19 18 17 17 16 16 15 15 16 16 16 16 16 16 16 16 16 16 17 17 18 18 19 19 19 19 20 20 20 21 22 23 24 25 25 25 25 25 25 27 27 28 28
14 13 12 12 12 12 12 12 13 13 13 13 13 13 13 13 13 13 14 14 15 15 16 16 17 18 18 18 19 19 20 20 20 20 21 21 21 21 20 19 19 18 17 17 16 16 16 16 16 16 16 16 15 15 15 15 15 15 16 16 17 17 18 18 19 19 20 21 22 23 23 23 23 23 24 24 24 23 23 23 24 25 26 25 25
14 13 12 12 12 12 13 13 13 12 12 11 11 11 11 11 11 12 13 14 15 16 17 18 18 18 18 19 19 20 20 21 21 21 21 21 21 20 19 18 17 17 16 16 16 16 16 16 16 15 15 15 15 15 15 15 16 16 17 17 17 17 17 18 19 20 21 22 23 24 24 24 23 23 23 23 22 21 21 21 22 23 24 24 23
13 13 13 13 12 12 12 12 11 10 10 9 9 9 9 10 11 13 15 16 17 18 18 18 18 18 18 18 19 19 20 20 20 20 20 19 19 18 17 16 16 16 15 15 16 16 16 16 15 15 15 15 15 16 16 16 17 17 18 18 17 17 18 19 20 21 22 23 24 24 24 23 22 22 22 21 20 19 19 20 21 21 22 22 21
13 13 13 14 12 11 10 10 9 8 8 8 8 9 10 11 13 15 16 17 18 18 18 18 18 18 18 18 18 19 19 19 18 18 18 17 16 16 16 15 15 16 15 15 16 16 15 15 15 15 16 16 16 16 16 17 17 18 18 18 18 18 19 20 21 21 22 23 24 24 24 23 22 21 21 19 19 18 19 19 19 20 20 20 20
12 11 11 11 10 9 9 9 9 9 9 9 10 10 12 13 15 16 17 18 18 18 19 19 20 19 19 19 19 20 20 19 18 18 17 16 16 16 15 16 16 16 16 16 15 15 16 16 16 16 16 16 16 16 17 17 18 18 19 19 19 20 20 21 22 22 23 24 24 23 23 22 21 20 19 18 18 18 19 19 19 19 19 19 19
9 8 7 8 10 10 11 11 10 10 10 10 11 12 14 15 17 17 18 19 20 20 21 21 21 20 20 20 21 21 20 20 19 18 17 16 16 16 16 16 16 16 16 16 15 16 16 17 17 17 17 16 16 17 17 18 19 19 20 20 20 21 21 22 22 23 23 23 23 22 21 20 20 19 18 18 18 18 18 19 19 18 18 18 18
9 9 9 10 11 11 11 11 10 10 11 12 13 14 16 17 18 19 20 21 21 21 22 21 21 20 20 21 21 21 20 20 19 18 17 17 17 17 17 17 16 16 16 16 16 17 17 17 18 17 17 17 17 18 19 19 19 20 20 21 21 22 22 22 22 23 23 23 22 21 20 19 19 18 18 17 17 18 18 18 18 18 18 18 18
10 10 9 9 10 10 10 11 11 12 13 14 15 16 18 19 20 21 21 22 22 22 21 21 20 20 20 20 21 20 19 19 18 18 18 18 18 17 17 17 17 17 17 17 17 18 18 18 18 18 18 18 19 19 20 20 20 20 21 22 22 22 22 22 22 23 23 22 21 20 19 19 18 18 17 17 17 17 18 18 18 18 18 18 18
9 9 9 10 10 11 11 12 13 14 15 16 17 18 19 20 20 20 21 21 21 21 21 20 20 20 21 20 20 20 19 19 19 19 19 19 18 18 18 18 18 18 18 18 18 19 19 19 19 19 19 20 20 21 21 21 21 21 22 22 23 23 22 22 22 22 22 21 20 20 19 19 18 17 17 17 17 17 18 18 18 19 18 18 19
10 11 11 12 12 12 13 14 15 16 17 17 18 19 19 20 20 20 21 21 21 21 21 20 20 21 21 20 21 21 20 19 19 19 19 19 19 19 19 19 19 19 19 19 19 20 20 20 20 20 21 21 21 21 22 22 22 22 23 23 23 23 23 23 22 22 21 20 20 20 20 19 19 18 18 18 17 18 18 18 18 18 18 18 19
13 13 14 14 14 15 15 16 16 17 18 18 18 19 19 20 20 20 20 20 20 20 20 20 20 21 21 21 21 20 19 19 19 19 20 20 20 20 20 20 20 21 20 20 20 20 21 21 21 22 22 22 22 22 22 23 23 23 24 23 23 23 23 23 22 21 20 20 20 20 20 20 19 19 19 18 18 18 18 18 18 18 18 18 18
15 15 16 16 16 16 17 17 18 18 18 19 19 19 19 20 20 20 20 20 20 20 20 20 20 20 20 20 20 19 19 19 20 20 21 21 21 21 21 22 22 21 21 21 21 21 22 22 23 23 23 23 23 23 23 23 23 24 24 24 23 23 23 23 22 21 20 20 20 20 21 20 19 20 19 19 18 18 18 18 18 18 18 18 18
17 17 17 18 18 18 19 19 19 20 20 20 20 20 19 19 19 19 19 19 20 20 20 20 20 20 19 19 19 20 20 21 21 21 21 22 22 22 22 22 22 22 22 22 22 22 23 23 23 23 23 23 24 24 24 24 24 24 24 23 23 23 23 22 22 21 21 21 21 21 21 20 20 20 19 19 19 19 18 18 18 18 18 18 19
18 18 18 19 19 20 20 20 20 20 20 20 20 20 20 19 19 19 19 19 19 19 19 19 19 19 19 19 20 21 21 21 21 22 22 22 23 23 23 23 23 23 23 23 23 23 23 24 24 24 24 24 24 24 24 24 24 24 24 24 24 23 23 22 22 22 22 22 21 22 21 21 20 20 19 19 19 19 18 18 18 18 18 18 19
Wind_Direction
277 258 245 236 232 232 230 228 224 221 223 225 222 222 224 222 218 218 219 219 221 224 225 225 223 218 215 213 211 211 211 210 210 211 212 213 215 215 215 215 216 217 218 218 217 216 215 216 219 223 227 233 241 250 259 268 274 280 284 288 295 299 299 300 302 303 305 308 308 308 311 315 317 317 316 317 317 318 320 323 323 322 323 324 326
284 267 252 241 234 232 233 231 227 224 225 225 224 224 224 219 217 218 218 220 225 229 228 226 223 220 218 216 214 213 213 213 213 213 214 215 216 216 216 217 218 218 218 218 217 216 215 217 220 224 227 232 240 247 256 265 270 276 281 286 290 294 297 300 302 303 303 304 304 305 308 311 312 312 312 313 315 316 318 320 321 322 324 325 326
283 270 257 246 238 235 235 233 229 226 226 225 224 225 222 218 219 220 219 222 228 231 231 228 225 222 220 219 218 217 216 216 216 217 217 217 218 218 217 218 219 220 219 218 217 216 216 218 221 224 226 229 234 243 252 260 265 271 277 281 284 288 292 295 296 299 301 301 300 301 304 306 308 308 308 310 313 314 316 319 321 323 324 324 325
282 271 260 250 242 237 237 235 231 228 227 226 224 224 222 220 221 221 220 222 227 231 232 230 226 224 223 221 220 219 218 218 218 219 219 220 221 220 219 220 220 221 221 220 217 217 217 218 220 222 224 226 232 239 248 256 262 267 271 275 279 282 286 288 290 293 295 295 295 295 299 301 303 305 307 310 312 313 316 319 321 322 322 322 324
281 274 262 252 246 240 238 236 233 230 229 227 225 224 223 223 224 223 221 222 226 230 231 230 227 225 224 223 223 221 221 221 221 221 221 222 222 222 222 222 222 222 221 220 217 217 216 217 220 222 223 226 232 238 246 253 258 263 267 270 274 278 281 283 285 287 289 290 291 292 295 298 301 305 309 311 312 315 317 319 320 319 319 321 324
275 275 264 254 249 245 241 238 235 232 230 228 226 226 226 226 226 223 222 223 226 230 231 230 228 226 225 225 224 224 223 224 224 224 223 223 222 223 223 222 223 223 221 218 216 215 215 216 219 221 224 229 235 240 245 251 256 260 264 267 270 275 278 279 280 282 285 288 289 292 294 297 301 306 310 312 313 316 318 317 316 316 318 321 322
265 270 266 256 252 250 246 242 239 235 233 231 229 228 229 228 227 225 223 225 228 231 232 231 229 227 226 225 225 226 226 226 226 226 225 224 223 223 223 222 221 222 221 218 216 215 216 217 219 223 228 233 237 242 247 251 256 259 261 265 268 272 274 275 277 280 284 286 288 291 294 297 302 307 310 312 314 316 316 314 314 316 317 318 318
261 265 265 260 256 255 251 246 242 238 236 233 230 229 229 229 229 228 226 226 228 232 234 233 231 229 228 226 226 227 228 228 228 227 226 225 224 224 224 222 221 221 220 218 216 216 217 218 220 224 230 236 242 248 250 252 255 258 260 264 267 270 271 272 276 280 283 285 287 291 295 298 302 306 309 312 313 314 313 310 311 314 315 315 316
260 261 263 265 263 257 252 247 244 240 237 235 232 229 228 229 231 232 229 226 228 232 235 235 234 231 229 228 227 228 229 229 229 228 227 225 224 225 224 223 222 221 221 219 216 216 218 219 220 224 232 242 249 253 253 253 255 257 260 263 266 268 270 272 276 280 282 283 287 292 296 299 302 306 309 311 312 311 309 307 308 311 313 313 315
261 260 264 270 267 257 251 248 245 242 239 238 234 231 230 231 232 232 229 226 228 232 235 237 236 233 231 230 229 229 230 230 230 230 229 228 227 226 224 223 223 222 222 220 217 218 219 219 221 228 240 248 252 255 255 254 254 257 260 263 265 266 269 272 276 279 280 283 289 294 296 299 303 305 307 309 309 307 306 306 307 310 311 311 314
264 263 264 269 267 260 254 250 247 244 242 240 237 233 231 231 233 232 230 227 228 232 235 237 237 235 234 233 232 232 232 231 231 231 230 230 229 228 226 224 223 223 223 222 221 222 221 219 226 240 248 249 252 255 256 254 254 258 261 263 264 265 267 272 275 278 279 283 290 293 296 300 304 305 306 307 305 304 305 306 307 308 308 309 313
268 267 266 266 267 266 260 252 248 246 244 242 240 235 231 231 232 232 231 230 230 231 233 236 238 238 236 235 235 235 234 234 233 231 230 230 229 229 228 227 226 224 223 223 224 224 220 223 238 249 250 249 252 255 255 253 256 261 262 262 263 264 267 271 275 277 280 284 289 292 295 300 302 304 305 304 302 303 305 305 304 305 306 308 311
270 269 267 264 266 269 265 256 251 248 246 244 242 238 233 232 232 231 232 233 232 231 231 233 236 239 239 237 237 237 236 235 234 233 231 230 230 229 229 228 227 226 226 226 225 222 222 234 247 250 248 250 253 255 254 253 256 261 262 262 263 265 269 272 275 277 281 285 288 291 295 298 300 302 302 300 301 303 304 303 302 303 305 308 310
272 272 270 266 266 269 267 261 254 251 248 245 242 240 238 236 234 232 233 235 234 231 230 231 233 236 239 239 239 238 238 236 235 235 233 231 230 230 229 227 226 227 227 227 224 222 229 243 249 248 248 252 255 256 254 253 257 260 261 262 264 267 270 273 276 279 283 286 288 291 295 297 298 300 299 298 300 302 302 300 300 302 305 307 307
275 274 271 267 266 267 267 263 258 253 250 246 243 242 241 239 236 234 234 237 236 233 232 233 234 235 237 240 240 239 238 237 235 235 233 231 230 230 229 227 226 226 225 223 222 226 238 249 250 248 249 253 256 256 254 254 257 259 261 262 264 267 270 273 277 281 285 287 290 293 296 297 297 298 297 297 299 300 299 298 300 304 305 305 306
275 273 270 267 266 266 265 263 259 255 253 250 246 243 242 240 238 236 235 237 238 235 233 234 235 235 236 238 240 240 239 237 235 234 232 231 230 229 229 228 226 225 223 222 224 232 245 255 252 249 250 254 257 256 254 255 257 259 261 263 265 267 270 273 278 282 285 288 291 295 296 296 297 298 297 299 300 299 298 297 300 302 302 302 304
275 273 272 271 270 269 267 265 261 258 255 253 250 247 244 241 239 237 236 236 237 237 235 235 235 236 236 236 238 240 239 236 234 233 231 230 229 229 229 227 225 225 223 223 228 237 251 259 255 250 252 256 258 258 257 258 260 262 264 265 267 269 272 276 281 284 287 291 293 295 296 297 298 298 297 296 295 294 293 294 297 298 297 298 301
279 277 277 276 274 272 270 267 263 259 256 256 254 250 246 243 241 239 237 236 237 239 240 240 238 238 239 240 240 241 240 237 234 232 230 229 229 229 230 228 227 227 225 225 230 239 252 260 256 251 255 259 261 261 260 261 263 264 266 269 271 273 277 281 284 287 289 291 292 293 294 295 294 293 289 284 282 284 288 291 294 294 293 293 296
289 287 285 281 277 274 271 267 263 259 257 257 255 252 249 246 244 241 238 237 237 239 242 243 241 239 239 240 241 241 240 237 234 231 229 229 228 229 229 229 229 229 227 228 232 241 254 261 256 253 259 262 262 262 263 264 266 267 270 272 274 277 282 285 285 286 288 289 290 291 291 291 290 289 287 285 283 285 288 290 290 290 290 291 294
294 290 286 282 277 273 269 265 262 259 259 258 256 254 251 248 246 244 241 238 238 239 241 242 243 242 240 239 239 240 239 236 233 230 229 230 230 229 230 231 233 233 230 230 235 246 258 262 257 257 263 264 263 264 265 267 269 271 272 274 277 280 283 283 283 285 287 288 289 290 290 290 289 288 289 288 286 287 289 289 289 290 291 293 297
292 288 284 280 276 272 268 265 263 261 259 258 255 253 251 249 248 247 244 241 238 239 241 242 242 242 241 239 239 239 238 236 233 229 228 229 230 231 233 235 236 234 232 234 241 252 262 263 259 260 264 265 264 264 265 268 271 272 272 274 277 279 280 281 284 286 287 288 289 290 291 292 293 294 295 294 293 293 294 294 292 290 291 295 298
290 288 284 280 275 271 268 265 263 260 258 256 254 253 251 250 248 247 245 241 239 240 241 243 243 241 240 238 238 239 239 237 234 229 227 228 231 233 235 237 235 233 234 240 248 257 263 263 259 260 262 263 263 263 264 267 268 270 272 274 276 277 279 282 284 286 287 290 292 294 297 300 303 305 306 307 307 304 301 298 294 290 290 295 298
292 288 284 281 276 271 268 265 262 260 258 256 255 253 250 249 247 245 243 239 238 239 241 242 242 239 237 235 236 238 239 237 232 227 225 227 231 233 234 234 234 236 240 247 254 260 263 260 257 258 260 261 261 261 262 264 266 268 272 274 276 278 281 283 286 289 293 295 297 299 302 304 306 306 308 310 310 306 302 300 296 292 290 293 297
293 289 285 281 277 272 268 265 262 260 258 255 252 249 247 246 244 243 240 237 237 238 240 242 240 235 233 233 234 235 235 233 230 225 224 227 229 231 232 233 236 241 247 253 258 259 258 256 257 259 260 260 260 259 260 262 264 267 271 274 277 279 281 285 288 291 292 293 295 298 300 302 303 305 306 306 304 301 301 301 298 293 291 293 298
293 289 284 280 277 273 268 263 260 257 255 252 250 247 245 244 242 240 239 237 238 239 241 241 237 233 233 236 236 235 233 232 230 228 227 229 230 231 233 236 241 247 251 255 256 254 253 254 257 258 259 259 259 260 261 263 265 268 271 273 276 278 281 284 285 285 285 288 292 295 297 299 300 299 298 297 296 297 300 302 299 294 291 294 299
290 286 280 277 274 270 265 260 256 253 250 249 248 246 246 245 242 240 238 238 239 240 240 239 235 233 235 239 240 237 233 231 229 227 227 230 232 234 237 240 244 248 250 250 249 248 250 253 254 255 257 258 260 262 263 264 266 267 270 272 274 277 279 281 282 283 287 291 293 294 295 294 293 292 290 290 292 295 298 299 296 293 292 296 299
287 280 276 273 270 266 262 257 253 250 246 244 242 241 242 242 241 241 240 239 239 238 236 235 234 235 239 241 238 234 230 227 225 224 225 228 230 233 235 237 239 240 241 242 244 245 248 250 252 254 256 257 259 260 262 265 268 270 273 276 277 279 280 280 282 285 290 294 295 294 294 292 290 290 289 289 290 291 292 293 293 293 295 297 297
281 274 270 267 265 262 259 255 251 247 244 241 240 239 240 241 243 244 244 243 241 239 237 236 236 237 238 236 231 226 221 220 220 220 220 222 224 226 228 230 232 233 236 240 244 247 248 248 249 252 254 256 260 263 266 271 274 277 279 280 281 284 287 290 294 298 298 297 295 293 292 291 290 289 288 287 286 286 287 289 292 294 295 295 295
274 267 263 261 258 254 250 246 244 242 239 237 236 237 239 242 244 243 240 238 239 240 241 240 239 238 236 231 228 225 224 225 226 224 224 224 226 227 230 232 234 235 237 239 242 245 247 247 247 249 253 258 263 268 272 275 277 278 279 281 285 291 296 298 302 305 303 299 294 291 289 288 287 287 286 286 285 286 287 290 291 291 291 291 293
267 262 258 254 249 243 237 234 233 233 234 234 233 233 234 234 234 232 230 230 230 228 228 225 223 224 225 226 228 229 230 229 226 225 226 227 227 227 228 229 231 232 233 234 236 238 242 245 247 249 253 257 261 265 269 271 274 276 278 282 289 294 297 299 301 302 301 298 294 291 289 289 290 290 289 289 289 288 286 286 286 286 287 290 293
261 258 254 248 240 232 226 224 222 222 225 227 228 229 228 224 219 215 216 219 219 217 216 214 212 215 218 221 225 228 228 224 221 220 221 223 225 226 226 227 228 228 229 232 235 237 240 244 247 250 252 255 258 261 265 268 272 277 281 286 291 294 297 298 298 298 296 294 293 292 293 294 295 295 295 295 294 291 287 285 284 286 289 292 294
257 254 247 239 229 221 215 213 213 214 214 214 215 216 217 216 212 208 208 209 210 212 215 217 218 221 223 224 227 228 227 224 222 221 220 222 224 226 226 227 228 229 230 234 236 239 241 244 247 250 253 256 258 261 265 270 275 280 284 288 291 294 295 294 293 293 292 290 291 291 293 295 296 295 295 295 294 292 290 288 289 291 293 295 296
251 245 237 228 219 213 208 205 204 205 203 201 201 202 204 208 210 209 209 210 212 215 220 224 225 226 227 228 229 228 226 222 220 220 221 222 223 224 224 226 228 229 232 236 238 240 242 244 246 249 253 257 260 264 269 273 277 279 282 285 288 290 289 287 288 288 288 287 288 289 292 294 295 293 292 291 291 290 290 289 291 293 294 295 295
238 231 224 218 212 207 200 196 195 196 195 196 198 201 205 210 214 215 218 219 220 222 224 225 226 225 225 226 225 224 221 219 218 218 220 221 222 223 225 226 227 229 233 236 238 240 242 243 245 248 252 256 261 266 270 273 275 276 278 281 284 284 284 285 287 288 287 287 287 289 291 292 291 291 292 292 292 291 291 291 292 292 292 293 294
220 211 205 205 206 202 195 191 192 194 196 198 203 209 214 217 219 221 224 227 229 229 225 221 220 220 220 221 220 218 217 217 217 218 221 223 225 226 227 227 228 231 233 234 235 237 241 243 245 247 252 257 262 266 269 271 272 274 275 277 279 280 282 286 288 290 291 291 290 291 291 291 292 293 294 294 293 293 293 293 292 291 292 293 295
206 198 193 193 195 196 194 193 193 195 199 204 211 217 220 220 221 222 223 225 229 230 226 221 218 217 217 216 217 218 218 219 220 221 223 225 227 228 230 231 232 234 237 238 238 239 241 243 244 247 253 258 261 264 267 268 270 273 276 278 281 284 285 287 289 290 291 290 289 289 289 291 293 295 295 295 294 294 293 292 291 291 292 293 295
192 187 184 183 184 187 188 189 191 196 204 210 215 219 220 219 219 219 219 219 219 220 220 220 219 218 218 218 219 221 222 222 222 222 223 224 226 228 230 232 233 236 239 241 242 242 241 243 245 249 253 257 258 261 264 267 271 276 279 281 285 286 286 287 287 287 288 288 289 291 292 293 294 295 295 295 294 293 292 291 290 291 292 293 295
178 175 177 181 185 188 190 193 199 205 210 212 213 215 216 214 210 210 211 213 215 216 219 222 223 224 226 226 226 227 226 225 224 223 222 223 226 229 230 232 233 237 240 243 245 246 247 249 252 255 258 260 262 265 269 272 275 278 280 281 283 283 283 285 286 288 290 292 294 295 295 296 296 296 294 293 293 292 291 291 291 291 292 294 295
176 175 178 184 191 196 198 200 203 203 201 197 195 196 200 202 205 211 217 222 227 229 230 230 230 230 231 232 232 231 230 229 229 228 227 227 230 232 233 234 236 237 239 241 245 249 252 256 260 263 265 267 270 272 275 275 276 278 279 280 282 283 284 286 288 289 290 291 292 293 294 294 295 293 291 291 291 291 291 290 290 291 292 293 295
183 183 185 186 189 191 189 187 187 186 184 186 191 199 209 219 226 232 235 236 238 238 237 237 238 237 237 237 237 236 237 237 236 235 233 232 233 234 234 235 237 238 239 240 244 248 253 257 260 262 264 267 269 271 273 274 275 277 279 281 283 284 284 284 285 285 286 287 288 290 291 291 291 291 290 291 291 290 289 289 289 290 290 292 294
181 181 180 177 176 177 177 180 185 191 196 207 217 224 231 237 239 239 239 239 240 242 242 242 242 242 241 240 238 238 238 238 238 237 237 236 236 235 235 236 239 241 243 244 246 250 253 254 256 257 259 262 264 267 270 273 276 278 279 281 281 281 281 281 282 283 284 286 287 288 289 290 290 290 290 290 290 289 288 288 288 289 290 292 294
167 170 172 174 181 192 200 206 211 214 217 222 227 229 233 237 238 239 240 241 243 243 243 243 243 242 240 237 235 235 234 234 235 236 237 237 237 236 236 237 240 244 247 248 250 252 254 255 257 258 260 262 265 268 272 274 276 277 279 279 279 279 280 280 281 282 283 284 284 285 287 288 288 287 287 288 288 288 289 288 288 289 291 292 294
176 189 203 212 216 219 219 219 220 222 226 230 234 237 239 241 241 242 243 243 244 244 243 243 243 241 237 234 233 234 234 235 236 236 236 237 237 237 239 242 245 247 248 249 250 252 254 256 258 260 262 265 268 271 272 274 275 276 277 278 278 279 279 279 279 280 281 281 281 282 284 284 284 284 284 285 286 287 288 288 289 290 291 292 293
224 230 233 232 229 226 225 226 228 233 239 243 245 247 247 246 246 245 244 243 243 243 243 242 241 239 237 235 236 237 238 239 240 239 237 237 238 240 244 247 248 248 249 250 252 253 255 257 260 263 265 268 269 271 272 273 274 275 275 276 277 277 277 277 277 277 277 278 279 280 280 280 280 281 282 282 283 285 286 287 289 290 291 292 293
237 237 236 236 235 234 236 239 244 249 253 254 254 253 251 249 248 246 245 244 243 242 242 241 239 238 237 238 240 242 241 241 241 240 238 238 240 243 246 248 248 249 251 253 254 255 257 259 262 265 268 269 271 272 273 273 274 274 274 275 276 275 275 275 275 275 276 277 278 278 278 278 278 279 280 280 281 283 284 285 286 287 289 291 291
243 242 242 243 242 243 246 248 252 255 256 255 255 253 251 249 248 247 245 245 243 243 243 241 240 239 239 240 241 242 241 239 238 238 237 240 243 245 247 247 249 251 253 255 256 258 260 262 265 268 269 270 271 272 273 274 274 274 274 274 274 274 274 274 274 274 275 277 277 277 277 277 277 277 278 278 279 280 282 283 284 286 287 288 288
250 250 248 248 248 248 249 250 251 252 252 252 252 252 250 249 248 247 246 246 245 244 244 242 241 242 241 240 241 241 239 236 235 236 238 241 244 246 248 250 252 254 255 256 257 260 263 265 267 268 269 270 272 272 273 274 274 274 274 273 273 274 274 274 274 273 274 274 275 275 276 277 278 278 278 278 278 279 279 280 281 283 285 286 287
250 248 248 250 250 250 251 251 251 251 251 251 251 251 250 250 249 248 248 248 247 247 246 244 243 243 242 241 240 240 237 234 234 236 240 244 247 249 252 254 255 256 257 258 260 262 264 266 267 268 269 270 272 272 272 273 273 272 272 272 272 272 272 272 272 272 272 272 272 272 273 275 276 277 277 278 278 278 279 279 280 282 283 284 285
251 251 253 254 254 254 255 254 253 252 252 252 252 252 252 251 251 251 250 249 249 248 247 245 244 244 243 241 240 238 236 236 237 240 243 247 250 253 255 256 258 259 261 262 262 263 264 265 266 268 269 270 271 271 271 271 271 271 271 271 271 271 271 271 271 271 270 270 271 271 271 272 273 274 275 276 276 276 277 278 279 280 281 281 282
252 254 256 258 258 258 258 257 256 255 255 253 253 253 252 252 252 251 251 250 249 248 247 246 245 243 242 239 237 237 237 238 241 244 247 251 253 255 257 259 261 262 263 263 264 264 265 266 267 268 269 270 270 270 270 270 270 270 269 268 268 268 268 268 269 269 269 269 269 269 269 270 271 271 273 274 275 276 277 277 278 278 279 280 281
253 256 258 259 259 260 260 259 258 258 257 255 254 253 252 251 251 249 249 248 248 247 246 244 242 240 238 236 236 237 239 242 246 249 252 254 257 258 259 261 262 263 264 264 265 265 266 267 267 268 269 269 269 269 269 269 268 268 268 267 267 267 267 267 267 267 267 267 266 266 267 268 268 269 270 271 272 274 275 276 276 277 277 278 278